Weather History for Osoyoos, British Columbia

Change the Weather History Date:

Friday, October 4, 2013

  Actual Average Record
Temperature  
Mean Temperature 48 °F -  
Max Temperature 63 °F - - ()
Min Temperature 32 °F - - ()
Degree Days  
Heating Degree Days 18    
Moisture  
Dew Point 36 °F    
Average Humidity 66    
Maximum Humidity 98    
Minimum Humidity 27    
Precipitation  
Precipitation 0.00 in - - ()
Sea Level Pressure  
Sea Level Pressure 30.46 in    
Wind  
Wind Speed 2 mph ()    
Max Wind Speed 9 mph    
Max Gust Speed -    
T = Trace of Precipitation, MM = Missing Value Source: Averaged Metar Reports

Daily Weather History Graph

Daily Weather History Graph

Search for Another Location

Airport:

Trip Planner

Search our weather history database for the weather conditions in past years. The results will help you decide how hot, cold, wet, or windy it might be!

Date:

Astronomy

Oct. 04, 2013 Rise Set
Actual Time 7:02 AM PDT 6:29 PM PDT
Civil Twilight 6:30 AM PDT 7:01 PM PDT
Nautical Twilight 5:53 AM PDT 7:37 PM PDT
Astronomical Twilight 5:16 AM PDT 8:14 PM PDT
Moon 6:44 AM PDT (10/4) 6:11 PM PDT (10/4)
Length of Visible Light 12h 30m
Length of Day
11h 27m
Waning Crescent, 0% of the Moon is Illuminated
Oct 4
Waning Crescent
Oct 4
New
Oct 11
First Quarter
Oct 18
Full
Oct 26
Last Quarter

Hourly Weather History & Observations

Time (PDT) Temp. Dew Point Humidity Pressure Visibility Wind Dir Wind Speed Gust Speed Precip Events Conditions
12:00 AM 38.3 °F 35.2 °F 89% 30.45 in - ENE 1.2 mph - N/A   Unknown
1:00 AM 36.1 °F 34.2 °F 93% 30.47 in - Calm Calm - N/A   Unknown
2:00 AM 35.6 °F 34.2 °F 94% 30.49 in - ENE 2.3 mph - N/A   Unknown
3:00 AM 34.3 °F 33.3 °F 96% 30.49 in - NE 1.2 mph - N/A   Unknown
4:00 AM 33.6 °F 31.3 °F 91% 30.49 in - ENE 1.2 mph - N/A   Unknown
5:00 AM 33 °F 33 °F 98% 30.51 in - ENE 1.2 mph - -  
5:00 AM 33.4 °F 31.3 °F 92% 30.51 in - ENE 1.2 mph - N/A   Unknown
6:00 AM 33.3 °F 31.6 °F 94% 30.52 in - ENE 1.2 mph - N/A   Unknown
7:00 AM 33.3 °F 31.5 °F 93% 30.52 in - East 1.2 mph - N/A   Unknown
8:00 AM 34.5 °F 33.8 °F 97% 30.54 in - ENE 2.3 mph - N/A   Unknown
9:00 AM 43.5 °F 39.0 °F 84% 30.55 in - SSE 1.2 mph - N/A   Unknown
10:00 AM 45.7 °F 36.1 °F 69% 30.55 in - ENE 1.2 mph - N/A   Unknown
11:00 AM 50 °F 37 °F 51% 30.53 in - SSE 2.3 mph - -  
11:00 AM 49.6 °F 37.4 °F 63% 30.53 in - SSE 2.3 mph - N/A   Unknown
12:00 PM 53.1 °F 37.4 °F 55% 30.51 in - SW 3.5 mph - N/A   Unknown
1:00 PM 58.1 °F 38.5 °F 48% 30.48 in - SE 4.6 mph - N/A   Unknown
2:00 PM 60.6 °F 36.0 °F 40% 30.44 in - SE 5.8 mph - N/A   Unknown
3:00 PM 62.6 °F 34.5 °F 35% 30.41 in - SSE 9.2 mph - N/A   Unknown
4:00 PM 63.5 °F 36.5 °F 37% 30.40 in - SSE 8.1 mph - N/A   Unknown
5:00 PM 62 °F 37 °F 27% 30.39 in - SE 5.8 mph - -  
5:00 PM 61.5 °F 36.9 °F 40% 30.39 in - SE 5.8 mph - N/A   Unknown
6:00 PM 59.4 °F 36.5 °F 43% 30.38 in - ESE 3.5 mph - N/A   Unknown
7:00 PM 56.8 °F 37.4 °F 48% 30.38 in - SSE 2.3 mph - N/A   Unknown
8:00 PM 54.5 °F 40.6 °F 60% 30.37 in - SSE 3.5 mph - N/A   Unknown
9:00 PM 54.9 °F 40.3 °F 58% 30.37 in - South 3.5 mph - N/A   Unknown
10:00 PM 54.7 °F 37.0 °F 51% 30.37 in - SE 3.5 mph - N/A   Unknown
11:00 PM 53 °F 37 °F 43% 30.37 in - SSE 3.5 mph - -  
11:00 PM 53.2 °F 37.0 °F 54% 30.37 in - SSE 3.5 mph - N/A   Unknown